Tracking 19634 objects as of 21-May-2019
HD Live streaming from Space Station
objects crossing your sky now

HILAT

Track HILAT now!
10-day predictions
HILAT is classified as:


NORAD ID: 14154
Int'l Code: 1983-063A
Perigee: 748.7 km
Apogee: 806.4 km
Inclination: 82.0 °
Period: 100.3 minutes
Semi major axis: 7148 km
RCS: 1.3804 m2 (large)
Launch date: June 27, 1983
Source: United States (US)
Launch site: AIR FORCE WESTERN TEST RANGE (AFWTR)
aabbcc
Your satellite tracking list
Your tracking list is empty




NASA's NSSDC Master Catalog

Two Line Element Set (TLE):
1 14154U 83063A   19141.24362253  .00000106  00000-0  30670-4 0  9995
2 14154  82.0275  37.2536 0040314 181.6488 296.6172 14.36401318876718
Source of the keplerian elements: AFSPC